Starlink 3243

operational
NORAD ID: 51116 Int'l Des: 2022-005 Owner: SPXS Country: US Constellation: starlink
LEOCIRCULAR

Starlink 3243について

説明を読み込み中...

リアルタイム位置

3D地球を読み込み中...

次回通過

高度履歴

Altitude vs Time

uPlot chart will show altitude changes over time

軌道要素

1 51116U 22005N 25257.56029066 -.00000125 00000-0 10253-4 0 9992
2 51116 53.2192 359.7674 0001208 87.7672 272.3459 15.08831076202282
Epoch: Sep 14, 2025 • Age: 21 hours

現在のステータス

高度 544.8 km
速度 7.60 km/s
衛星直下点 50.15°N, 40.57°W
打ち上げ日 Jan 19, 2022
運用期間 3.6 years
タイプ internet

技術仕様

分類 Payload
質量 297.00 kg
乾燥質量 275.00 kg
総質量 297.00 kg
長さ 0.20 m
直径 2.80 m
スパン 9.00 m
形状 Box + pan
製造者 SPXS
バスタイプ Starlink
フェーズステータス In Orbit
所有者/国 SPXS/US

大規模コンステレーション

Loading constellations...